GW2980 Weather Reports


time (UTC)temp
C
wind
direction
speed
KPH
gust
KPH
rain 1hr
cm
rain 24hr
cm
rain mn
cm
humidity
%
barometer
mb
20260509203635 15 0.0 0.0 0.00 0.00 0.00 65 945.4
20260509203036 15 0.0 0.0 0.00 0.00 0.00 63 945.0
20260509202735 15 0.0 0.0 0.00 0.00 0.00 63 945.0
20260509202435 15 0.0 0.0 0.00 0.00 0.00 63 945.0
20260509202136 16 0.0 0.0 0.00 0.00 0.00 59 945.0
20260509201835 16 0.0 0.0 0.00 0.00 0.00 59 945.0
20260509200936 16 0.0 0.0 0.00 0.00 0.00 59 945.0
20260509200635 16 0.0 0.0 0.00 0.00 0.00 58 944.0
20260509200336 16 0.0 0.0 0.00 0.00 0.00 58 944.0
20260509200036 16 0.0 0.0 0.00 0.00 0.00 58 944.0
20260509195136 15 0.0 0.0 0.00 0.00 0.00 59 944.4
20260509194836 15 0.0 0.0 0.00 0.00 0.00 59 944.4
20260509194536 15 0.0 0.0 0.00 0.00 0.00 59 944.4
20260509193936 15 0.0 0.0 0.00 0.00 0.00 59 944.4
20260509193635 15 0.0 0.0 0.00 0.00 0.00 59 944.4
20260509193036 16 0.0 0.0 0.00 0.00 0.00 57 944.0
20260509192735 16 0.0 0.0 0.00 0.00 0.00 57 944.0
20260509192136 16 0.0 0.0 0.00 0.00 0.00 57 944.0
20260509191836 16 0.0 0.0 0.00 0.00 0.00 56 943.0
20260509191536 16 0.0 0.0 0.00 0.00 0.00 56 943.0
20260509190336 16 0.0 0.0 0.00 0.00 0.00 54 943.0
20260509190036 16 0.0 0.0 0.00 0.00 0.00 54 943.0
20260509185436 16 0.0 0.0 0.00 0.00 0.00 54 943.0
20260509184835 16 0.0 0.0 0.00 0.00 0.00 54 943.0
20260509184536 16 0.0 0.0 0.00 0.00 0.00 54 943.0
20260509183636 16 0.0 0.0 0.00 0.00 0.00 54 943.0
20260509183335 17 0.0 0.0 0.00 0.00 0.00 53 943.4
20260509182736 17 0.0 0.0 0.00 0.00 0.00 52 943.0
20260509182136 17 0.0 0.0 0.00 0.00 0.00 52 943.0
20260509181836 17 0.0 0.0 0.00 0.00 0.00 52 943.0
20260509181536 17 0.0 0.0 0.00 0.00 0.00 53 943.0
20260509181236 17 0.0 0.0 0.00 0.00 0.00 53 943.0
20260509180936 17 0.0 0.0 0.00 0.00 0.00 53 943.0
20260509180636 17 0.0 0.0 0.00 0.00 0.00 53 943.0
20260509180336 17 0.0 0.0 0.00 0.00 0.00 53 943.0
20260509180036 17 0.0 0.0 0.00 0.00 0.00 53 943.0
20260509175736 17 0.0 0.0 0.00 0.00 0.00 53 943.0
20260509175436 17 0.0 0.0 0.00 0.00 0.00 53 943.0
20260509174835 18 0.0 0.0 0.00 0.00 0.00 52 942.0
20260509174536 18 0.0 0.0 0.00 0.00 0.00 52 942.0
20260509174236 18 0.0 0.0 0.00 0.00 0.00 51 942.0
20260509173935 18 0.0 0.0 0.00 0.00 0.00 51 942.0
20260509173636 18 0.0 0.0 0.00 0.00 0.00 51 942.0
20260509172736 18 0.0 0.0 0.00 0.00 0.00 51 942.0
20260509172436 18 0.0 0.0 0.00 0.00 0.00 51 942.0
20260509172135 18 0.0 0.0 0.00 0.00 0.00 51 942.0
20260509171835 18 0.0 0.0 0.00 0.00 0.00 51 942.0
20260509171536 18 0.0 0.0 0.00 0.00 0.00 51 942.0
20260509171236 18 0.0 0.0 0.00 0.00 0.00 51 942.0
20260509170936 18 0.0 0.0 0.00 0.00 0.00 51 942.0
20260509170636 17 0.0 0.0 0.00 0.00 0.00 51 943.0
20260509170336 17 0.0 0.0 0.00 0.00 0.00 51 943.0
20260509170036 17 0.0 0.0 0.00 0.00 0.00 51 943.0
20260509165736 17 0.0 0.0 0.00 0.00 0.00 51 943.0
20260509165435 17 0.0 0.0 0.00 0.00 0.00 51 943.0
20260509165135 18 0.0 0.0 0.00 0.00 0.00 52 942.0
20260509164836 18 0.0 0.0 0.00 0.00 0.00 52 942.0
20260509164536 18 0.0 0.0 0.00 0.00 0.00 52 942.0
20260509164236 18 0.0 0.0 0.00 0.00 0.00 52 942.0
20260509163936 18 0.0 0.0 0.00 0.00 0.00 52 942.0
20260509163635 18 0.0 0.0 0.00 0.00 0.00 52 942.0
20260509163336 18 0.0 0.0 0.00 0.00 0.00 52 942.0
20260509163035 18 0.0 0.0 0.00 0.00 0.00 52 942.0
20260509162736 18 0.0 0.0 0.00 0.00 0.00 52 942.0
20260509162136 18 0.0 0.0 0.00 0.00 0.00 52 942.0
20260509161836 18 0.0 0.0 0.00 0.00 0.00 52 942.0
20260509161536 18 0.0 0.0 0.00 0.00 0.00 52 942.0
20260509161235 18 0.0 0.0 0.00 0.00 0.00 52 942.0
20260509160936 18 0.0 0.0 0.00 0.00 0.00 52 942.8
20260509160635 18 0.0 0.0 0.00 0.00 0.00 52 942.8
20260509160336 18 0.0 0.0 0.00 0.00 0.00 52 942.8
20260509155736 18 0.0 0.0 0.00 0.00 0.00 52 942.0
20260509155436 18 0.0 0.0 0.00 0.00 0.00 52 942.0
20260509155136 18 0.0 0.0 0.00 0.00 0.00 52 942.0
20260509154536 19 0.0 0.0 0.00 0.00 0.00 50 943.0
20260509154236 19 0.0 0.0 0.00 0.00 0.00 50 943.0
20260509153635 19 0.0 0.0 0.00 0.00 0.00 47 942.0
20260509153036 19 0.0 0.0 0.00 0.00 0.00 47 942.0
20260509152735 20 0.0 0.0 0.00 0.00 0.00 47 942.8
20260509152435 20 0.0 0.0 0.00 0.00 0.00 47 942.8
20260509152135 20 0.0 0.0 0.00 0.00 0.00 47 942.8
20260509151836 20 0.0 0.0 0.00 0.00 0.00 47 942.8
20260509151536 20 0.0 0.0 0.00 0.00 0.00 47 942.8
20260509151235 20 0.0 0.0 0.00 0.00 0.00 47 942.8
20260509150936 20 0.0 0.0 0.00 0.00 0.00 47 942.8
20260509150635 20 0.0 0.0 0.00 0.00 0.00 47 942.8
20260509150335 20 0.0 0.0 0.00 0.00 0.00 47 942.8
20260509150036 20 0.0 0.0 0.00 0.00 0.00 46 942.0
20260509145735 20 0.0 0.0 0.00 0.00 0.00 46 942.0
20260509145136 20 0.0 0.0 0.00 0.00 0.00 46 942.0
20260509144535 20 0.0 0.0 0.00 0.00 0.00 46 942.0
20260509144236 20 0.0 0.0 0.00 0.00 0.00 46 942.0
20260509143936 20 0.0 0.0 0.00 0.00 0.00 46 942.0
20260509143635 20 0.0 0.0 0.00 0.00 0.00 46 942.0
20260509143336 20 0.0 0.0 0.00 0.00 0.00 46 942.0
20260509143036 20 0.0 0.0 0.00 0.00 0.00 47 943.0
20260509142136 20 0.0 0.0 0.00 0.00 0.00 48 943.1
20260509141836 20 0.0 0.0 0.00 0.00 0.00 48 943.1
20260509141236 20 0.0 0.0 0.00 0.00 0.00 48 943.1
20260509140935 20 0.0 0.0 0.00 0.00 0.00 48 943.1
20260509140635 19 0.0 0.0 0.00 0.00 0.00 48 943.0
20260509140335 19 0.0 0.0 0.00 0.00 0.00 48 943.0
20260509140036 19 0.0 0.0 0.00 0.00 0.00 48 943.0
20260509135736 19 0.0 0.0 0.00 0.00 0.00 48 943.0
20260509135136 18 0.0 0.0 0.00 0.00 0.00 49 943.0
20260509134836 18 0.0 0.0 0.00 0.00 0.00 50 943.0
20260509134536 18 0.0 0.0 0.00 0.00 0.00 50 943.0
20260509134235 18 0.0 0.0 0.00 0.00 0.00 50 943.0
20260509133935 19 0.0 0.0 0.00 0.00 0.00 50 943.0
20260509133635 19 0.0 0.0 0.00 0.00 0.00 50 943.0
20260509133336 19 0.0 0.0 0.00 0.00 0.00 50 943.0
20260509133036 19 0.0 0.0 0.00 0.00 0.00 50 943.0
20260509132736 20 0.0 0.0 0.00 0.00 0.00 52 943.0
20260509131836 20 0.0 0.0 0.00 0.00 0.00 52 943.0
20260509131236 20 0.0 0.0 0.00 0.00 0.00 54 943.7
20260509130936 20 0.0 0.0 0.00 0.00 0.00 54 943.7
20260509130636 20 0.0 0.0 0.00 0.00 0.00 55 943.0
20260509130336 20 0.0 0.0 0.00 0.00 0.00 55 943.0
20260509130036 20 0.0 0.0 0.00 0.00 0.00 54 944.0
20260509125735 19 0.0 0.0 0.00 0.00 0.00 55 943.0
20260509125436 19 0.0 0.0 0.00 0.00 0.00 55 943.0
20260509125136 20 0.0 0.0 0.00 0.00 0.00 51 943.0
20260509124536 20 0.0 0.0 0.00 0.00 0.00 50 943.8
20260509124236 20 0.0 0.0 0.00 0.00 0.00 46 943.0
20260509123935 20 0.0 0.0 0.00 0.00 0.00 46 943.0
20260509123336 20 0.0 0.0 0.00 0.00 0.00 44 943.0
20260509123036 20 0.0 0.0 0.00 0.00 0.00 44 943.0
20260509122735 21 0.0 0.0 0.00 0.00 0.00 42 943.0
20260509122435 21 0.0 0.0 0.00 0.00 0.00 41 943.0
20260509121835 22 0.0 0.0 0.00 0.00 0.00 40 943.0
20260509121535 22 0.0 0.0 0.00 0.00 0.00 40 943.0
20260509121235 22 0.0 0.0 0.00 0.00 0.00 40 943.0
20260509120936 22 0.0 0.0 0.00 0.00 0.00 41 943.0
20260509120635 22 0.0 0.0 0.00 0.00 0.00 41 943.0
20260509120036 22 0.0 0.0 0.00 0.00 0.00 41 943.0
20260509115435 22 0.0 0.0 0.00 0.00 0.00 41 943.0
20260509115136 22 0.0 0.0 0.00 0.00 0.00 41 943.1
20260509114835 21 0.0 0.0 0.00 0.00 0.00 43 943.0
20260509114536 21 0.0 0.0 0.00 0.00 0.00 43 943.0
20260509114235 21 0.0 0.0 0.00 0.00 0.00 43 943.0
20260509113936 21 0.0 0.0 0.00 0.00 0.00 43 943.0
20260509113635 21 0.0 0.0 0.00 0.00 0.00 43 943.0
20260509113336 21 0.0 0.0 0.00 0.00 0.00 43 943.0
20260509113036 21 0.0 0.0 0.00 0.00 0.00 43 943.0
20260509112736 21 0.0 0.0 0.00 0.00 0.00 43 943.0
20260509112435 21 0.0 0.0 0.00 0.00 0.00 43 943.0
20260509112137 22 0.0 0.0 0.00 0.00 0.00 42 943.0
20260509111836 22 0.0 0.0 0.00 0.00 0.00 42 943.0
20260509111536 22 0.0 0.0 0.00 0.00 0.00 42 943.0
20260509110936 22 0.0 0.0 0.00 0.00 0.00 43 943.3
20260509110635 22 0.0 0.0 0.00 0.00 0.00 43 943.3
20260509110036 22 0.0 0.0 0.00 0.00 0.00 43 943.3
20260509105736 21 0.0 0.0 0.00 0.00 0.00 43 943.0
20260509105436 21 0.0 0.0 0.00 0.00 0.00 43 943.0
20260509105136 21 0.0 0.0 0.00 0.00 0.00 43 943.0
20260509104836 21 0.0 0.0 0.00 0.00 0.00 43 943.0
20260509104535 21 0.0 0.0 0.00 0.00 0.00 43 943.0
20260509104236 22 0.0 0.0 0.00 0.00 0.00 43 943.0
20260509103936 22 0.0 0.0 0.00 0.00 0.00 43 943.0
20260509103635 21 0.0 0.0 0.00 0.00 0.00 42 943.0
20260509103336 21 0.0 0.0 0.00 0.00 0.00 42 943.0
20260509103035 21 0.0 0.0 0.00 0.00 0.00 42 943.0
20260509102735 22 0.0 0.0 0.00 0.00 0.00 43 943.0
20260509102435 22 0.0 0.0 0.00 0.00 0.00 43 943.0
20260509102135 22 0.0 0.0 0.00 0.00 0.00 43 943.0
20260509101835 22 0.0 0.0 0.00 0.00 0.00 43 943.0
20260509101536 22 0.0 0.0 0.00 0.00 0.00 43 943.0
20260509101236 22 0.0 0.0 0.00 0.00 0.00 43 943.0
20260509100936 23 0.0 0.0 0.00 0.00 0.00 42 943.0
20260509100635 23 0.0 0.0 0.00 0.00 0.00 41 943.7
20260509100336 23 0.0 0.0 0.00 0.00 0.00 41 943.7
20260509100035 25 0.0 0.0 0.00 0.00 0.00 39 943.0
20260509095736 26 0.0 0.0 0.00 0.00 0.00 37 943.0
20260509095436 26 0.0 0.0 0.00 0.00 0.00 36 943.0
20260509095136 27 0.0 0.0 0.00 0.00 0.00 35 943.0
20260509094836 30 0.0 0.0 0.00 0.00 0.00 32 943.0
20260509094235 33 0.0 0.0 0.00 0.00 0.00 29 943.0
20260509093935 34 0.0 0.0 0.00 0.00 0.00 28 943.0
20260509093636 35 0.0 0.0 0.00 0.00 0.00 28 943.0
20260509093336 35 0.0 0.0 0.00 0.00 0.00 28 943.0
20260509093036 36 0.0 0.0 0.00 0.00 0.00 27 943.0
20260509092736 36 0.0 0.0 0.00 0.00 0.00 27 943.0
20260509092135 37 0.0 0.0 0.00 0.00 0.00 27 943.0
20260509091836 37 0.0 0.0 0.00 0.00 0.00 27 943.0
20260509091536 37 0.0 0.0 0.00 0.00 0.00 28 943.0
20260509091236 36 0.0 0.0 0.00 0.00 0.00 26 943.0
20260509090936 36 0.0 0.0 0.00 0.00 0.00 29 943.0
20260509090636 35 0.0 0.0 0.00 0.00 0.00 30 943.0
20260509090336 32 0.0 0.0 0.00 0.00 0.00 33 943.0
20260509085735 31 0.0 0.0 0.00 0.00 0.00 35 943.0
20260509085435 28 0.0 0.0 0.00 0.00 0.00 37 943.0
20260509084835 29 0.0 0.0 0.00 0.00 0.00 37 943.0
20260509084535 28 0.0 0.0 0.00 0.00 0.00 36 943.0
20260509084235 28 0.0 0.0 0.00 0.00 0.00 37 943.0
20260509083936 30 0.0 0.0 0.00 0.00 0.00 36 943.0
20260509083636 32 0.0 0.0 0.00 0.00 0.00 32 943.0
20260509083335 33 0.0 0.0 0.00 0.00 0.00 33 943.0
20260509082735 33 0.0 0.0 0.00 0.00 0.00 34 943.0
20260509082436 32 0.0 0.0 0.00 0.00 0.00 35 943.0
20260509082135 32 0.0 0.0 0.00 0.00 0.00 36 943.0
20260509081836 31 0.0 0.0 0.00 0.00 0.00 37 943.0
20260509081535 29 0.0 0.0 0.00 0.00 0.00 39 943.0
20260509080936 28 0.0 0.0 0.00 0.00 0.00 38 943.0
20260509080336 29 0.0 0.0 0.00 0.00 0.00 42 943.0
20260509080036 26 0.0 0.0 0.00 0.00 0.00 46 943.0
20260509075736 23 0.0 0.0 0.00 0.00 0.00 50 943.0
20260509075436 21 0.0 0.0 0.00 0.00 0.00 52 943.0
20260509075136 22 0.0 0.0 0.00 0.00 0.00 54 943.0
20260509074836 22 0.0 0.0 0.00 0.00 0.00 57 943.0
20260509074536 21 0.0 0.0 0.00 0.00 0.00 59 943.0
20260509074236 17 0.0 0.0 0.00 0.00 0.00 67 944.0
20260509073936 15 0.0 0.0 0.00 0.00 0.00 71 944.0
20260509073635 13 0.0 0.0 0.00 0.00 0.00 73 944.0
20260509073336 13 0.0 0.0 0.00 0.00 0.00 73 944.0
20260509073036 13 0.0 0.0 0.00 0.00 0.00 73 944.0
20260509072735 13 0.0 0.0 0.00 0.00 0.00 73 944.0
20260509072435 14 0.0 0.0 0.00 0.00 0.00 71 944.0
20260509072136 15 0.0 0.0 0.00 0.00 0.00 71 944.5
20260509071836 15 0.0 0.0 0.00 0.00 0.00 71 944.5
20260509071536 15 0.0 0.0 0.00 0.00 0.00 71 944.5
20260509071236 15 0.0 0.0 0.00 0.00 0.00 70 944.0
20260509070936 15 0.0 0.0 0.00 0.00 0.00 70 944.0
20260509070636 15 0.0 0.0 0.00 0.00 0.00 70 944.0
20260509065435 12 0.0 0.0 0.00 0.00 0.00 79 944.0
20260509065136 12 0.0 0.0 0.00 0.00 0.00 79 944.0
20260509064835 12 0.0 0.0 0.00 0.00 0.00 79 944.0
20260509063936 11 0.0 0.0 0.00 0.00 0.00 80 944.8
20260509063635 11 0.0 0.0 0.00 0.00 0.00 80 944.8
20260509063336 11 0.0 0.0 0.00 0.00 0.00 80 944.8
20260509063036 11 0.0 0.0 0.00 0.00 0.00 80 944.8
20260509062436 11 0.0 0.0 0.00 0.00 0.00 80 944.8
20260509062136 11 0.0 0.0 0.00 0.00 0.00 80 944.8
20260509061836 11 0.0 0.0 0.00 0.00 0.00 80 944.0
20260509061536 11 0.0 0.0 0.00 0.00 0.00 80 944.0
20260509060936 11 0.0 0.0 0.00 0.00 0.00 80 944.0
20260509060636 11 0.0 0.0 0.00 0.00 0.00 80 944.0
20260509060336 11 0.0 0.0 0.00 0.00 0.00 80 944.0
20260509060036 11 0.0 0.0 0.00 0.00 0.00 80 944.0
20260509055736 11 0.0 0.0 0.00 0.00 0.00 80 944.0
20260509055435 11 0.0 0.0 0.00 0.00 0.00 80 944.0
20260509055136 11 0.0 0.0 0.00 0.00 0.00 80 944.0
20260509054835 11 0.0 0.0 0.00 0.00 0.00 80 944.0
20260509054535 11 0.0 0.0 0.00 0.00 0.00 80 944.0
20260509054236 11 0.0 0.0 0.00 0.00 0.00 80 944.6
20260509053936 11 0.0 0.0 0.00 0.00 0.00 80 944.6
20260509053636 11 0.0 0.0 0.00 0.00 0.00 80 944.6
20260509053036 11 0.0 0.0 0.00 0.00 0.00 80 944.6
20260509052736 11 0.0 0.0 0.00 0.00 0.00 80 944.6
20260509052436 11 0.0 0.0 0.00 0.00 0.00 81 944.0
20260509051836 11 0.0 0.0 0.00 0.00 0.00 81 944.0
20260509051535 11 0.0 0.0 0.00 0.00 0.00 81 944.0
20260509051236 11 0.0 0.0 0.00 0.00 0.00 80 944.0
20260509050936 11 0.0 0.0 0.00 0.00 0.00 80 944.0
20260509050636 11 0.0 0.0 0.00 0.00 0.00 80 944.0
20260509050335 11 0.0 0.0 0.00 0.00 0.00 80 944.0
20260509050036 11 0.0 0.0 0.00 0.00 0.00 80 944.0
20260509045736 11 0.0 0.0 0.00 0.00 0.00 80 944.0
20260509045135 11 0.0 0.0 0.00 0.00 0.00 80 944.0
20260509044535 11 0.0 0.0 0.00 0.00 0.00 80 944.6
20260509043935 11 0.0 0.0 0.00 0.00 0.00 80 944.6
20260509043636 11 0.0 0.0 0.00 0.00 0.00 80 944.6
20260509043336 11 0.0 0.0 0.00 0.00 0.00 80 944.6
20260509043036 11 0.0 0.0 0.00 0.00 0.00 80 944.6
20260509042736 11 0.0 0.0 0.00 0.00 0.00 79 944.0
20260509042435 11 0.0 0.0 0.00 0.00 0.00 79 944.0
20260509042136 11 0.0 0.0 0.00 0.00 0.00 77 944.0
20260509041835 11 0.0 0.0 0.00 0.00 0.00 77 944.0
20260509041236 11 0.0 0.0 0.00 0.00 0.00 76 944.0
20260509040935 11 0.0 0.0 0.00 0.00 0.00 76 944.0
20260509040635 11 0.0 0.0 0.00 0.00 0.00 76 944.0
20260509040335 11 0.0 0.0 0.00 0.00 0.00 76 944.0
20260509040036 11 0.0 0.0 0.00 0.00 0.00 76 944.0
20260509035736 11 0.0 0.0 0.00 0.00 0.00 76 944.0
20260509035436 11 0.0 0.0 0.00 0.00 0.00 76 944.0
20260509035135 11 0.0 0.0 0.00 0.00 0.00 76 944.0
20260509034536 11 0.0 0.0 0.00 0.00 0.00 77 945.0
20260509034236 11 0.0 0.0 0.00 0.00 0.00 77 945.0
20260509033936 11 0.0 0.0 0.00 0.00 0.00 75 945.0
20260509033635 11 0.0 0.0 0.00 0.00 0.00 75 944.0
20260509033336 11 0.0 0.0 0.00 0.00 0.00 75 944.0
20260509033035 11 0.0 0.0 0.00 0.00 0.00 76 945.0
20260509032435 11 0.0 0.0 0.00 0.00 0.00 76 945.0
20260509032136 11 0.0 0.0 0.00 0.00 0.00 76 945.0
20260509031836 11 0.0 0.0 0.00 0.00 0.00 76 945.0
20260509031536 11 0.0 0.0 0.00 0.00 0.00 76 945.0
20260509031236 10 0.0 0.0 0.00 0.00 0.00 76 945.0
20260509030939 10 0.0 0.0 0.00 0.00 0.00 76 945.0
20260509030635 10 0.0 0.0 0.00 0.00 0.00 76 945.0
20260509030335 10 0.0 0.0 0.00 0.00 0.00 76 945.0
20260509030036 10 0.0 0.0 0.00 0.00 0.00 76 945.0
20260509025436 10 0.0 0.0 0.00 0.00 0.00 77 945.0
20260509025136 10 0.0 0.0 0.00 0.00 0.00 77 945.0
20260509024836 10 0.0 0.0 0.00 0.00 0.00 77 945.0
20260509024536 10 0.0 0.0 0.00 0.00 0.00 78 944.0
20260509024235 10 0.0 0.0 0.00 0.00 0.00 78 944.0
20260509023935 10 0.0 0.0 0.00 0.00 0.00 78 944.0
20260509023635 10 0.0 0.0 0.00 0.00 0.00 78 944.0
20260509023335 10 0.0 0.0 0.00 0.00 0.00 78 944.0
20260509022735 10 0.0 0.0 0.00 0.00 0.00 81 945.0
20260509022435 10 0.0 0.0 0.00 0.00 0.00 81 945.0
20260509022136 10 0.0 0.0 0.00 0.00 0.00 81 945.0
20260509021835 10 0.0 0.0 0.00 0.00 0.00 81 945.0
20260509021535 10 0.0 0.0 0.00 0.00 0.00 81 945.0
20260509020935 10 0.0 0.0 0.00 0.00 0.00 81 945.0
20260509020636 10 0.0 0.0 0.00 0.00 0.00 81 945.0
20260509020036 10 0.0 0.0 0.00 0.00 0.00 81 945.0
20260509015736 10 0.0 0.0 0.00 0.00 0.00 81 945.0
20260509015436 10 0.0 0.0 0.00 0.00 0.00 81 944.0
20260509015136 10 0.0 0.0 0.00 0.00 0.00 81 944.0
20260509014835 10 0.0 0.0 0.00 0.00 0.00 81 944.0
20260509014536 10 0.0 0.0 0.00 0.00 0.00 81 944.0
20260509014236 10 0.0 0.0 0.00 0.00 0.00 81 944.0
20260509013936 11 0.0 0.0 0.00 0.00 0.00 79 944.0
20260509013636 11 0.0 0.0 0.00 0.00 0.00 79 944.0
20260509013336 11 0.0 0.0 0.00 0.00 0.00 79 945.0
20260509013035 11 0.0 0.0 0.00 0.00 0.00 79 945.0
20260509012736 11 0.0 0.0 0.00 0.00 0.00 80 945.0
20260509012436 11 0.0 0.0 0.00 0.00 0.00 80 945.0
20260509012136 11 0.0 0.0 0.00 0.00 0.00 80 945.0
20260509011836 11 0.0 0.0 0.00 0.00 0.00 80 945.0
20260509011536 11 0.0 0.0 0.00 0.00 0.00 80 945.0
20260509011236 11 0.0 0.0 0.00 0.00 0.00 78 945.0
20260509010935 11 0.0 0.0 0.00 0.00 0.00 78 945.0
20260509010636 11 0.0 0.0 0.00 0.00 0.00 78 945.0
20260509010336 11 0.0 0.0 0.00 0.00 0.00 78 945.0
20260509010036 12 0.0 0.0 0.00 0.00 0.00 76 945.7
20260509005436 12 0.0 0.0 0.00 0.00 0.00 76 945.0
20260509005135 12 0.0 0.0 0.00 0.00 0.00 76 945.0
20260509004836 12 0.0 0.0 0.00 0.00 0.00 76 945.0
20260509004536 12 0.0 0.0 0.00 0.00 0.00 76 945.0
20260509004236 11 0.0 0.0 0.00 0.00 0.00 76 946.0
20260509003936 11 0.0 0.0 0.00 0.00 0.00 76 946.0
20260509003336 11 0.0 0.0 0.00 0.00 0.00 76 946.0
20260509002735 11 0.0 0.0 0.00 0.00 0.00 76 946.0
20260509002435 12 0.0 0.0 0.00 0.00 0.00 76 946.0
20260509002136 12 0.0 0.0 0.00 0.00 0.00 76 946.0
20260509001836 12 0.0 0.0 0.00 0.00 0.00 76 946.0
20260509001536 12 0.0 0.0 0.00 0.00 0.00 76 946.0
20260509001235 12 0.0 0.0 0.00 0.00 0.00 76 946.0
20260509000635 12 0.0 0.0 0.00 0.00 0.00 76 946.0
20260509000335 11 0.0 0.0 0.00 0.00 0.00 76 946.1
20260509000036 11 0.0 0.0 0.00 0.00 0.00 78 946.0
20260508235736 11 0.0 0.0 0.00 0.00 0.00 78 946.0
20260508235436 11 0.0 0.0 0.00 0.00 0.00 78 946.0
20260508235136 11 0.0 0.0 0.00 0.00 0.00 78 946.0
20260508234835 11 0.0 0.0 0.00 0.00 0.00 78 946.0
20260508234536 11 0.0 0.0 0.00 0.00 0.00 78 946.0
20260508233935 11 0.0 0.0 0.00 0.00 0.00 78 946.0
20260508233636 11 0.0 0.0 0.00 0.00 0.00 78 946.0
20260508233036 11 0.0 0.0 0.00 0.00 0.00 78 946.0
20260508232735 11 0.0 0.0 0.00 0.00 0.00 78 946.4
20260508232436 11 0.0 0.0 0.00 0.00 0.00 78 946.4
20260508232135 11 0.0 0.0 0.00 0.00 0.00 78 946.4
20260508231835 11 0.0 0.0 0.00 0.00 0.00 78 946.4
20260508231535 11 0.0 0.0 0.00 0.00 0.00 78 946.4
20260508231235 11 0.0 0.0 0.00 0.00 0.00 78 946.4
20260508230935 11 0.0 0.0 0.00 0.00 0.00 78 946.4
20260508230336 11 0.0 0.0 0.00 0.00 0.00 79 946.0
20260508230036 11 0.0 0.0 0.00 0.00 0.00 79 946.0
20260508225735 11 0.0 0.0 0.00 0.00 0.00 79 946.0
20260508225435 11 0.0 0.0 0.00 0.00 0.00 79 946.0
20260508225136 11 0.0 0.0 0.00 0.00 0.00 79 946.0
20260508224836 11 0.0 0.0 0.00 0.00 0.00 79 946.0
20260508224536 11 0.0 0.0 0.00 0.00 0.00 79 946.0
20260508224236 11 0.0 0.0 0.00 0.00 0.00 79 946.0
20260508223936 11 0.0 0.0 0.00 0.00 0.00 79 946.0
20260508223635 11 0.0 0.0 0.00 0.00 0.00 79 946.0
20260508223335 11 0.0 0.0 0.00 0.00 0.00 78 946.7
20260508223035 11 0.0 0.0 0.00 0.00 0.00 78 946.7
20260508222736 11 0.0 0.0 0.00 0.00 0.00 78 946.7
20260508222435 11 0.0 0.0 0.00 0.00 0.00 78 946.7
20260508222135 11 0.0 0.0 0.00 0.00 0.00 78 946.7
20260508221836 11 0.0 0.0 0.00 0.00 0.00 78 946.7
20260508221536 11 0.0 0.0 0.00 0.00 0.00 78 946.7
20260508221236 11 0.0 0.0 0.00 0.00 0.00 78 946.7
20260508220936 11 0.0 0.0 0.00 0.00 0.00 78 946.7
20260508215735 12 0.0 0.0 0.00 0.00 0.00 76 946.0
20260508215436 12 0.0 0.0 0.00 0.00 0.00 76 946.0
20260508215136 12 0.0 0.0 0.00 0.00 0.00 76 946.0
20260508213935 12 0.0 0.0 0.00 0.00 0.00 76 946.0
20260508213635 12 0.0 0.0 0.00 0.00 0.00 74 947.0
20260508213336 12 0.0 0.0 0.00 0.00 0.00 74 947.0
20260508213036 12 0.0 0.0 0.00 0.00 0.00 74 947.0
20260508212736 12 0.0 0.0 0.00 0.00 0.00 74 947.0
20260508212436 12 0.0 0.0 0.00 0.00 0.00 74 947.0
20260508211836 12 0.0 0.0 0.00 0.00 0.00 74 947.0
20260508211536 12 0.0 0.0 0.00 0.00 0.00 74 947.0
20260508211236 12 0.0 0.0 0.00 0.00 0.00 74 946.9
20260508210636 12 0.0 0.0 0.00 0.00 0.00 72 946.0
20260508210335 12 0.0 0.0 0.00 0.00 0.00 72 946.0
20260508205736 12 0.0 0.0 0.00 0.00 0.00 72 946.0
20260508205435 12 0.0 0.0 0.00 0.00 0.00 72 946.0
20260508205136 12 0.0 0.0 0.00 0.00 0.00 72 946.0
20260508204836 12 0.0 0.0 0.00 0.00 0.00 72 946.0
20260508204536 12 0.0 0.0 0.00 0.00 0.00 72 946.0
20260508204235 12 0.0 0.0 0.00 0.00 0.00 72 946.0
20260508203936 12 0.0 0.0 0.00 0.00 0.00 72 946.0